Вернуться в каталог

STARLINK-33893

АктивенСвязьVLEO
NORAD 64253·PAYLOAD·🇺🇸 United States

Запущен Jun 3, 2025 с Cape Canaveral Space Force Station

Loading…

Ближайшие Пролёты (ближайшие 24 часа)

TLE

СвежийSource: CelesTrak SupGP

Эпоха: Sep 14, 2026, 22:11 UTC

1 64253C 25119W   26257.92479167 -.00016029  00000+0 -58055-3 0  2577
2 64253  43.0035 318.5472 0001698 266.9538 252.4076 15.27586804    13

Отслеживайте STARLINK-33893 в реальном времени с AllMySat

Download on the App Store